Overview Statistics Trail Chart Weather Telemetry Raw packets
 

This is the latest recevied weather packets stored in our database for station/object K5IDL. If no packets are shown the sender has not sent any weather packets the latest 10 day(s).

<< 81 82 83 84 85 86 87 >>
Time Temp. Humidity Pressure Rain* Wind** Luminosity Snow
1788108680 35.56° C 46% 1018.1 hPa 0 mm - 594 W/m² -
1788108366 35.56° C 46% 1018.3 hPa 0 mm - 586 W/m² -
1788108062 36.11° C 46% 1018.2 hPa 0 mm - 579 W/m² -
1788107759 36.11° C 46% 1018.1 hPa 0 mm - 569 W/m² -
1788107457 36.11° C 46% 1018 hPa 0 mm - 559 W/m² -
1788107153 35.56° C 46% 1018.2 hPa 0 mm - 547 W/m² -
1788106848 36.11° C 46% 1018.3 hPa 0 mm - 539 W/m² -
1788106543 35° C 47% 1018.4 hPa 0 mm - 528 W/m² -
1788106238 36.11° C 46% 1018.2 hPa 0 mm - 523 W/m² -
1788105933 36.11° C 48% 1018.2 hPa 0 mm - 510 W/m² -
1788105628 35.56° C 49% 1018.2 hPa 0 mm - 498 W/m² -
1788105320 35° C 50% 1018.1 hPa 0 mm - 488 W/m² -
1788105015 35° C 52% 1018.2 hPa 0 mm - 474 W/m² -
1788104710 35.56° C 51% 1018.4 hPa 0 mm - 463 W/m² -
1788104412 35° C 51% 1018.2 hPa 0 mm - 449 W/m² -
1788104101 34.44° C 53% 1018.3 hPa 0 mm - 435 W/m² -
1788103800 35° C 50% 1018.2 hPa 0 mm - 425 W/m² -
1788103496 35.56° C 50% 1018.3 hPa 0 mm - 409 W/m² -
1788103194 35° C 51% 1018.1 hPa 0 mm - 392 W/m² -
1788102889 34.44° C 50% 1018.2 hPa 0 mm - 381 W/m² -
1788102584 34.44° C 51% 1018.3 hPa 0 mm - 366 W/m² -
1788102298 33.89° C 53% 1018.2 hPa 0 mm - 351 W/m² -
1788101978 33.89° C 53% 1018.3 hPa 0 mm - 336 W/m² -
1788101673 33.33° C 54% 1018.1 hPa 0 mm - 321 W/m² -
1788101368 34.44° C 51% 1018.1 hPa 0 mm - 308 W/m² -

* Rain latest hour (hover to see other rain measurements)
** Current wind speed in m/s (hover to see current wind gust speed)